[[[{"header":{"parameterUnit":"kt","parameterCategory":2,"dx":1,"dy":1,"la1":30.253999710083008,"la2":30.299108505249023,"lo1":-89.0895004272461,"lo2":-89.04439544677734,"nx":28,"ny":28,"refTime":"2022-09-29T21:00:00:Z","depth":0,"parameterNumber":1,"parameterNumberName":"U-component_of_WINDS"},"data":[-0.4257,-0.4386,-0.4383,-0.4528,-0.4549,-0.4649,-0.4684,-0.4728,-0.4762,-0.4881,-0.4948,-0.4957,-0.4991,-0.5071,-0.5145,-0.5148,-0.5182,-0.523,-0.5226,-0.5012,-0.4982,-0.4954,-0.4925,-0.5235,-0.5236,-0.5451,-0.5453,-0.5455,-0.4101,-0.4123,-0.4198,-0.4269,-0.4334,-0.4285,-0.4337,-0.4396,-0.4486,-0.4528,-0.4594,-0.4699,-0.478,-0.4798,-0.4877,-0.4938,-0.4922,-0.496,-0.4959,-0.4966,-0.4735,-0.4704,-0.4972,-0.4972,-0.4972,-0.4972,-0.4972,-0.4972,-0.3816,-0.3892,-0.3933,-0.4015,-0.4049,-0.4097,-0.417,-0.418,-0.4254,-0.4335,-0.4315,-0.4418,-0.446,-0.4553,-0.4583,-0.4664,-0.4622,-0.4664,-0.4676,-0.4689,-0.4704,-0.4402,-0.4676,-0.4675,-0.4675,-0.4674,-0.4673,0,-0.3608,-0.3599,-0.3671,-0.3742,-0.3801,-0.3856,-0.3906,-0.395,-0.3932,-0.3994,-0.4084,-0.4135,-0.4236,-0.4322,-0.4394,-0.4418,-0.4379,-0.4371,-0.4402,-0.4418,-0.4422,-0.4427,-0.4056,-0.4366,-0.4363,-0.4361,-0.4359,-0.4358,-0.3326,-0.3414,-0.3454,-0.3505,-0.3531,-0.3613,-0.3662,-0.3639,-0.3692,-0.375,-0.3819,-0.3902,-0.397,-0.4114,-0.4127,-0.4203,-0.4187,-0.4306,-0.4198,-0.4207,-0.4196,-0.4194,-0.4205,-0.433,-0.4334,-0.4337,-0.4339,0,-0.3168,-0.3161,-0.3297,-0.3328,-0.3338,-0.3433,-0.346,-0.3536,-0.3537,-0.3642,-0.3665,-0.3669,-0.3758,-0.3751,-0.385,-0.3845,-0.4005,-0.3982,-0.3991,-0.3988,-0.4099,-0.4091,-0.4448,-0.4496,-0.4166,-0.4169,-0.4172,0,-0.2928,-0.3045,-0.3029,-0.3108,-0.3237,-0.3211,-0.334,-0.3354,-0.339,-0.3472,-0.3423,-0.3501,-0.3479,-0.3557,-0.3549,-0.3677,-0.3694,-0.37,-0.3698,-0.3709,-0.3709,-0.3743,-0.3731,-0.3681,-0.3679,-0.3678,-0.3676,0,-0.2688,-0.2814,-0.2941,-0.297,-0.3016,-0.3076,-0.3098,-0.3138,-0.3186,-0.3247,-0.3279,-0.3351,-0.3392,-0.3449,-0.3439,-0.3367,-0.3593,-0.3492,-0.36,-0.3601,-0.3657,-0.3655,-0.3966,-0.3674,-0.3673,-0.3673,-0.3672,0,-0.2496,-0.2556,-0.274,-0.2778,-0.2813,-0.2896,-0.2966,-0.3036,-0.3081,-0.3081,-0.3129,-0.3098,-0.3205,-0.3106,-0.3256,-0.3165,-0.3209,-0.3223,-0.323,-0.3246,-0.3138,-0.3322,-0.3613,-0.3647,-0.3252,-0.3248,-0.3245,0,-0.2226,-0.2409,-0.2389,-0.2564,-0.2649,-0.259,-0.2682,-0.2723,-0.2731,-0.2804,-0.2812,-0.2897,-0.2821,-0.2847,-0.2921,-0.2935,-0.3051,-0.2917,-0.3031,-0.3036,-0.3027,-0.3293,-0.3342,-0.3548,-0.32,-0.3205,-0.3208,0,-0.2017,-0.207,-0.2103,-0.2135,-0.2185,-0.2255,-0.236,-0.2437,-0.2488,-0.2538,-0.2629,-0.2744,-0.2694,-0.2737,-0.272,-0.2797,-0.2971,-0.2733,-0.2734,-0.2782,-0.3175,-0.3221,-0.3256,-0.2943,-0.2948,-0.2952,-0.3172,0,-0.1738,-0.1828,-0.1914,-0.1985,-0.2037,-0.2145,-0.2138,-0.2194,-0.2171,-0.2178,-0.2308,-0.2341,-0.2422,-0.2457,-0.2436,-0.2614,-0.2585,-0.253,-0.244,-0.2611,-0.2684,-0.2713,-0.2331,-0.2328,-0.2326,-0.2324,0,0,-0.1485,-0.1614,-0.1588,-0.1689,-0.1733,-0.1671,-0.1788,-0.1822,-0.1895,-0.1928,-0.1875,-0.2045,-0.2075,-0.2235,-0.2288,-0.2318,-0.2352,-0.2292,-0.2528,-0.2551,-0.2572,-0.265,-0.268,-0.232,-0.2319,-0.2318,-0.2318,0,-0.1384,-0.1411,-0.1525,-0.1559,-0.161,-0.161,-0.1637,-0.1677,-0.1687,-0.1813,-0.1764,-0.184,-0.1977,-0.2017,-0.2055,-0.227,-0.2232,-0.2294,-0.2415,-0.2504,-0.253,-0.2553,-0.2635,-0.2664,-0.2312,-0.2312,-0.2312,0,-0.1181,-0.1209,-0.1262,-0.1355,-0.1388,-0.1476,-0.1376,-0.1472,-0.1538,-0.1469,-0.1596,-0.1614,-0.1666,-0.1816,-0.1883,-0.1838,-0.2124,-0.2031,-0.2045,-0.2055,-0.2142,-0.2173,-0.22,-0.1839,-0.1837,-0.1835,0,0,-0.1095,-0.1177,-0.1201,-0.1333,-0.1357,-0.1359,-0.1405,-0.1388,-0.1435,-0.1454,-0.1478,-0.1526,-0.1605,-0.1658,-0.1732,-0.1896,-0.1908,-0.1973,-0.1995,-0.2013,-0.2033,-0.2125,-0.2155,-0.1829,-0.1829,-0.1829,0,0,-0.1055,-0.1088,-0.1057,-0.1208,-0.1253,-0.1288,-0.137,-0.1333,-0.1399,-0.1387,-0.1365,-0.1377,-0.1516,-0.1537,-0.1455,-0.1701,-0.161,-0.1629,-0.1684,-0.1712,-0.1734,-0.1729,-0.1362,0,0,0,0,0,-0.0948,-0.1083,-0.1055,-0.1079,-0.1197,-0.1303,-0.1318,-0.1302,-0.1238,-0.1303,-0.1317,-0.1271,-0.1488,-0.1416,-0.1441,-0.1535,-0.175,-0.1764,-0.1778,-0.1886,-0.1916,-0.1941,0,0,0,0,0,0,-0.0958,-0.0987,-0.1051,-0.1091,-0.1118,-0.1298,-0.1186,-0.1186,-0.1231,-0.122,-0.127,-0.1273,-0.1263,-0.1402,-0.1425,-0.1514,-0.1354,-0.1756,-0.1768,-0.1778,-0.1896,-0.1921,-0.1941,0,0,0,0,0,-0.0965,-0.0989,-0.1182,-0.1089,-0.1112,-0.1123,-0.1181,-0.118,-0.1215,-0.1237,-0.1238,-0.1199,-0.1265,-0.1284,-0.1415,-0.1504,-0.1338,-0.1347,-0.1764,-0.1773,-0.1781,-0.1908,0,0,0,0,0,0,-0.0971,-0.0989,-0.1186,-0.1193,-0.1037,-0.1113,-0.1124,-0.1175,-0.1228,-0.1231,-0.1164,-0.1156,-0.1269,-0.1283,-0.1298,-0.1501,-0.1325,-0.1334,-0.1339,-0.1771,-0.1778,-0.1785,0,0,0,0,0,0,-0.0976,-0.0995,-0.1189,-0.1125,-0.1124,-0.1104,-0.1114,-0.1223,-0.123,-0.1153,-0.1147,-0.116,-0.1248,-0.1283,-0.1294,-0.1465,-0.1315,-0.1323,-0.1329,-0.1333,-0.1777,-0.1782,0,0,0,0,0,0,-0.0984,-0.1,-0.1123,-0.1122,-0.1121,-0.1192,-0.12,-0.1322,-0.1172,-0.1151,-0.1159,-0.1152,-0.125,-0.126,-0.1292,-0.1458,-0.1463,-0.1315,-0.1321,-0.1325,-0.1328,0,0,0,0,0,0,0,-0.099,-0.0885,-0.1148,-0.112,-0.1119,-0.1252,-0.1254,-0.1256,-0.1171,-0.1165,-0.116,-0.1155,-0.1266,-0.1276,-0.1285,-0.1453,0,0,-0.1314,-0.1318,0,0,0,0,0,0,0,0,-0.0878,-0.0883,-0.1148,-0.1149,-0.1151,-0.1253,-0.1254,-0.1255,-0.117,-0.1166,-0.1161,-0.1157,-0.1269,-0.1276,-0.1284,0,0,0,0,0,0,0,0,0,0,0,0,0,0,0,-0.1148,-0.1149,0,-0.1253,-0.1254,-0.1255,-0.1169,-0.1166,-0.1162,-0.1159,-0.1271,-0.1277,-0.1283,0,0,0,0,0,0,0,0,0,0,0,0,0,0,0,0,0,0,0,0,0,0,0,0,0,0,0,0,0,0,0,0,0,0,0,0,0,0,0,0,0,0,0,0,0,0,0,0,0,0,0,0,0,0,0,0,0,0,0,0,0,0,0,0,0,0,0,0,0]}],[{"header":{"parameterUnit":"kt","parameterCategory":2,"dx":1,"dy":1,"la1":30.253999710083008,"la2":30.299108505249023,"lo1":-89.0895004272461,"lo2":-89.04439544677734,"nx":28,"ny":28,"refTime":"2022-09-29T21:00:00:Z","depth":0,"parameterNumber":2,"parameterNumberName":"V-component_of_WINDS"},"data":[-10.279,-10.3044,-10.3075,-10.3378,-10.3457,-10.3668,-10.3753,-10.3865,-10.3961,-10.4213,-10.4363,-10.4417,-10.4521,-10.4704,-10.4864,-10.4884,-10.4949,-10.5017,-10.5027,-10.4701,-10.4658,-10.4616,-10.4559,-10.5031,-10.5032,-10.536,-10.5363,-10.5366,-10.2545,-10.2626,-10.2797,-10.2982,-10.3127,-10.3081,-10.3223,-10.3346,-10.3535,-10.3656,-10.3805,-10.4028,-10.4207,-10.429,-10.4465,-10.4581,-10.4567,-10.4626,-10.4616,-10.4633,-10.4286,-10.4225,-10.4634,-10.4634,-10.4634,-10.4634,-10.4634,-10.4633,-10.2107,-10.2259,-10.239,-10.2575,-10.2676,-10.2799,-10.2948,-10.3013,-10.3177,-10.3368,-10.337,-10.3583,-10.3707,-10.3932,-10.4014,-10.4178,-10.4117,-10.419,-10.4208,-10.4225,-10.4241,-10.3759,-10.4209,-10.4208,-10.4207,-10.4206,-10.4206,0,-10.1795,-10.1811,-10.1977,-10.2153,-10.2289,-10.2427,-10.2558,-10.265,-10.269,-10.2824,-10.302,-10.3137,-10.3367,-10.3551,-10.3722,-10.3792,-10.3753,-10.3753,-10.3803,-10.3805,-10.3784,-10.3796,-10.3227,-10.3739,-10.3736,-10.3733,-10.3731,-10.3729,-10.1354,-10.1529,-10.168,-10.1792,-10.1872,-10.2053,-10.2166,-10.2189,-10.2307,-10.2469,-10.26,-10.2787,-10.2937,-10.3242,-10.3311,-10.3482,-10.3464,-10.3656,-10.3489,-10.3483,-10.3465,-10.3454,-10.347,-10.3688,-10.3693,-10.3697,-10.3701,0,-10.1102,-10.1153,-10.1432,-10.1565,-10.1603,-10.1784,-10.1895,-10.2046,-10.2092,-10.2305,-10.2356,-10.2427,-10.2617,-10.2656,-10.2879,-10.2893,-10.3184,-10.3163,-10.3141,-10.3138,-10.3313,-10.3295,-10.3878,-10.3954,-10.3467,-10.3471,-10.3475,0,-10.0745,-10.0973,-10.1033,-10.1193,-10.1446,-10.1464,-10.1712,-10.1776,-10.1885,-10.2054,-10.2018,-10.2176,-10.2201,-10.2364,-10.2385,-10.2629,-10.2672,-10.2696,-10.2699,-10.2699,-10.2696,-10.2759,-10.2736,-10.27,-10.2697,-10.2694,-10.2692,0,-10.0344,-10.0645,-10.0905,-10.0981,-10.1145,-10.1265,-10.1339,-10.1461,-10.1571,-10.1719,-10.179,-10.1961,-10.2055,-10.2186,-10.2211,-10.2096,-10.2512,-10.2359,-10.2536,-10.2536,-10.2625,-10.2619,-10.3127,-10.2688,-10.2687,-10.2686,-10.2685,0,-10.0062,-10.0217,-10.0587,-10.0722,-10.08,-10.0971,-10.1142,-10.1297,-10.1428,-10.1454,-10.157,-10.155,-10.177,-10.1614,-10.1915,-10.1757,-10.185,-10.1894,-10.1907,-10.1928,-10.1753,-10.2032,-10.2513,-10.2564,-10.1948,-10.1942,-10.1936,0,-9.9589,-9.9977,-9.9996,-10.0347,-10.0531,-10.0479,-10.0669,-10.0787,-10.0836,-10.0997,-10.1049,-10.1232,-10.1125,-10.1187,-10.1331,-10.1392,-10.1597,-10.1366,-10.1591,-10.1599,-10.1558,-10.2001,-10.2063,-10.2404,-10.1858,-10.1866,-10.1872,0,-9.9229,-9.9429,-9.9491,-9.9578,-9.974,-9.9893,-10.0111,-10.0298,-10.0404,-10.0541,-10.0722,-10.098,-10.0909,-10.1013,-10.1014,-10.1162,-10.1459,-10.1065,-10.1069,-10.1133,-10.1823,-10.188,-10.1937,-10.1426,-10.1436,-10.1443,-10.181,0,-9.8789,-9.899,-9.9159,-9.9354,-9.948,-9.9702,-9.9747,-9.9872,-9.9862,-9.9909,-10.0177,-10.0283,-10.0471,-10.0546,-10.0538,-10.0865,-10.0815,-10.0738,-10.0588,-10.088,-10.1001,-10.1051,-10.0403,-10.0399,-10.0396,-10.0393,0,0,-9.8322,-9.8612,-9.8626,-9.884,-9.8947,-9.8891,-9.9124,-9.9221,-9.9417,-9.9491,-9.9408,-9.9788,-9.9878,-10.0198,-10.0292,-10.0368,-10.0429,-10.0326,-10.0741,-10.078,-10.0816,-10.0945,-10.0997,-10.0387,-10.0385,-10.0384,-10.0383,0,-9.8171,-9.8271,-9.8503,-9.8605,-9.8756,-9.8795,-9.8851,-9.899,-9.9031,-9.9295,-9.9242,-9.9407,-9.9711,-9.9812,-9.9904,-10.029,-10.0239,-10.0343,-10.0536,-10.0704,-10.0748,-10.0786,-10.0922,-10.0971,-10.0374,-10.0375,-10.0375,0,-9.7823,-9.7927,-9.8045,-9.8287,-9.8385,-9.8576,-9.8432,-9.864,-9.8781,-9.8705,-9.8968,-9.9033,-9.9172,-9.947,-9.9605,-9.9533,-10.0063,-9.9904,-9.9927,-9.9942,-10.0107,-10.0159,-10.0205,-9.9594,-9.9591,-9.9588,0,0,-9.7686,-9.7874,-9.7992,-9.8258,-9.8324,-9.8386,-9.8492,-9.8494,-9.8623,-9.8675,-9.8757,-9.8883,-9.9058,-9.9174,-9.9341,-9.9663,-9.9691,-9.9806,-9.9843,-9.9873,-9.9904,-10.0076,-10.0128,-9.9578,-9.9577,-9.9577,0,0,-9.7619,-9.7768,-9.7736,-9.8052,-9.8178,-9.831,-9.8469,-9.8432,-9.8589,-9.8568,-9.8577,-9.8611,-9.8889,-9.8955,-9.8804,-9.9288,-9.914,-9.9177,-9.9235,-9.9283,-9.9319,-9.9297,-9.8669,0,0,0,0,0,-9.7488,-9.7749,-9.7719,-9.7779,-9.8084,-9.8327,-9.8365,-9.8381,-9.8276,-9.8402,-9.8464,-9.8404,-9.8875,-9.8742,-9.88,-9.8967,-9.9437,-9.9462,-9.9485,-9.9637,-9.9686,-9.9727,0,0,0,0,0,0,-9.7512,-9.7585,-9.7712,-9.7855,-9.7924,-9.8318,-9.8142,-9.8154,-9.8263,-9.8247,-9.8394,-9.8409,-9.8424,-9.8714,-9.8765,-9.8924,-9.8651,-9.9447,-9.9468,-9.9487,-9.9654,-9.9694,-9.9728,0,0,0,0,0,-9.7531,-9.759,-9.8076,-9.7851,-9.7911,-9.7994,-9.8132,-9.8141,-9.8225,-9.8323,-9.8336,-9.8227,-9.8429,-9.8473,-9.8744,-9.89,-9.8616,-9.8635,-9.946,-9.9477,-9.9492,-9.9673,0,0,0,0,0,0,-9.7545,-9.7598,-9.8089,-9.8107,-9.7754,-9.7972,-9.8007,-9.813,-9.8293,-9.8309,-9.8155,-9.8141,-9.8435,-9.8468,-9.8502,-9.8892,-9.8587,-9.8606,-9.8618,-9.9473,-9.9486,-9.9498,0,0,0,0,0,0,-9.7566,-9.7614,-9.8098,-9.7975,-9.798,-9.7952,-9.7983,-9.8215,-9.8296,-9.8116,-9.8109,-9.8147,-9.8382,-9.8466,-9.8492,-9.8854,-9.8564,-9.8583,-9.8596,-9.8604,-9.9484,-9.9494,0,0,0,0,0,0,-9.7586,-9.7628,-9.797,-9.7974,-9.7977,-9.8187,-9.8157,-9.8468,-9.8194,-9.8109,-9.8169,-9.8158,-9.8382,-9.8408,-9.8486,-9.8837,-9.885,-9.8565,-9.8578,-9.8587,-9.8593,0,0,0,0,0,0,0,-9.7603,-9.7325,-9.7979,-9.7973,-9.7976,-9.8279,-9.8285,-9.829,-9.8191,-9.8182,-9.8172,-9.8163,-9.8458,-9.8478,-9.8499,-9.8823,0,0,-9.8563,-9.8572,0,0,0,0,0,0,0,0,-9.7308,-9.732,-9.7979,-9.7983,-9.7987,-9.828,-9.8284,-9.8288,-9.819,-9.8182,-9.8174,-9.8166,-9.8463,-9.848,-9.8497,0,0,0,0,0,0,0,0,0,0,0,0,0,0,0,-9.798,-9.7983,0,-9.8281,-9.8284,-9.8288,-9.8189,-9.8182,-9.8176,-9.8169,-9.8468,-9.8482,-9.8495,0,0,0,0,0,0,0,0,0,0,0,0,0,0,0,0,0,0,0,0,0,0,0,0,0,0,0,0,0,0,0,0,0,0,0,0,0,0,0,0,0,0,0,0,0,0,0,0,0,0,0,0,0,0,0,0,0,0,0,0,0,0,0,0,0,0,0,0,0]}]]]